COSMOS 1897 DEB, 44572

Orbit data source: Space-Track

COSMOS 1897 DEB, 44572 is space debris in GEO originally from a launch on Thu, 26 Nov 1987 UTC launched from the Tyuratam Missile And Space Complex (TTMTR). Debris objects in space refer to the collection of defunct objects orbiting the Earth. Examples of debris include non-operational satellites, rocket bodies, and fragments generated from explosions, collisions, or faulty payload assembly.

Not visible in the next 10 days
Identifier
44572, 1987-096G
Orbit
GEO
Country
Flag of CISCIS
Related business
Manufacturer
NPO PM
Mission
Spacecraft
Bus & Motor
Unknown
Mass
Unknown
Launch date (UTC)
1987-11-26 (38 years ago)
Launch vehicle
Unknown
Launch site
Tyuratam Missile And Space Complex (TTMTR)
Object type
Payload
Rocket body
Debris
Shape & HBR
Unknown shape, 1.1 m
Radar Cross Section
Large (>1 m²)

Expand to show TLE details & history
Last TLE update: 1 day ago

TLE from 1 day ago
0 COSMOS 1897 DEB
1 44572U 87096G   25348.73402289 -.00000054  00000-0  00000-0 0  9999
2 44572  11.1258 327.5238 0026508 287.3019 256.2707  1.00447451 69137
Epoch: 2025-12-14T17:36Z
TLE epoch observation values (Epoch: 2025-12-14T17:36:59.577Z)
Latitude
-0.63465°
Longitude
162.82737°
Altitude
35,763.974 km
Speed
3.075 km/s
True Right ascension
10h 02m 52s
True Declination
0° 38' 02"
Sunlit
Object was in daylight at epoch
Visualization orbit readout
Latitude
Unknown
Longitude
Unknown
Altitude
Unknown
Speed
Unknown
Apparent Right ascension
Unknown
Apparent Declination
Unknown
Sunlit
N/A
Visualization observer readout
Local Sidereal Time
19:03:13
Azimuth
Unknown
Elevation
Unknown
Doppler factor
Unknown
Orbital elements
Apogee altitude
35,850.077 km
Perigee altitude
35,626.792 km
Semi-major axis
42,116.571 km
Eccentricity
0.00265
Inclination
11.1258°
RAAN
327.5238°
Arg. of periapsis
287.3019°
True anomaly
255.97585°
Mean anomaly
256.2707°
Eccentric anomaly
256.12325°
Mean motion
0.25111 °/min
Orbital period
1,433.64 mins
BSTAR
0
Loading maneuver chart data...
Computing Atmospheric mass density...
Loading historical data...
Loading historical data...
Loading historical data...
Loading historical data...
Loading historical data...
Loading historical data...
Loading historical data...

Documentation

Showing up to 5 results
|